VK2RZ Weather Reports


Display with metric or nautical units.
time (UTC)temp
F
wind
direction
speed
MPH
gust
MPH
rain 1hr
in
rain 24hr
in
rain mn
in
humidity
%
barometer
mb
20260901030416 69 33 2.0 8.0 0.00 0.00 0.00 6 1021.1
20260901025416 69 87 3.0 12.0 0.00 0.00 0.00 6 1021.2
20260901024416 70 86 6.0 10.0 0.00 0.00 0.00 6 1021.3
20260901023416 71 39 10.0 10.0 0.00 0.00 0.00 6 1021.7
20260901022416 74 110 1.0 7.0 0.00 0.00 0.00 4 1021.9
20260901021416 72 91 2.0 6.0 0.00 0.00 0.00 6 1022.3
20260901020415 71 98 2.0 8.0 0.00 0.00 0.00 6 1022.6
20260901015415 73 91 9.0 11.0 0.00 0.00 0.00 5 1022.7
20260901014415 72 79 6.0 8.0 0.00 0.00 0.00 5 1023.0
20260901013415 72 47 3.0 7.0 0.00 0.00 0.00 5 1023.2
20260901012415 72 41 3.0 7.0 0.00 0.00 0.00 5 1023.4
20260901011415 71 83 2.0 7.0 0.00 0.00 0.00 5 1023.8
20260901010415 71 35 3.0 7.0 0.00 0.00 0.00 5 1024.0
20260901005415 71 27 6.0 6.0 0.00 0.00 0.00 5 1024.3
20260901004415 71 6 1.0 8.0 0.00 0.00 0.00 5 1024.4
20260901003415 69 52 2.0 4.0 0.00 0.00 0.00 5 1024.6
20260901002415 69 0 0.0 3.0 0.00 0.00 0.00 5 1024.9
20260901001415 69 40 3.0 3.0 0.00 0.00 0.00 6 1024.9
20260901000415 67 31 3.0 6.0 0.00 0.00 0.00 6 1025.2
20260831235414 67 16 6.0 8.0 0.00 0.00 0.00 6 1025.4
20260831234414 66 16 1.0 6.0 0.00 0.00 0.00 6 1025.7
20260831233414 65 47 2.0 6.0 0.00 0.00 0.00 6 1025.8
20260831232414 64 37 2.0 7.0 0.00 0.00 0.00 6 1026.0
20260831231414 63 6 3.0 3.0 0.00 0.00 0.00 6 1026.3
20260831230414 63 4 1.0 4.0 0.00 0.00 0.00 6 1026.3
20260831225414 62 358 3.0 4.0 0.00 0.00 0.00 7 1026.4
20260831224414 62 347 1.0 3.0 0.00 0.00 0.00 7 1026.4
20260831223414 61 0 0.0 0.0 0.00 0.00 0.00 7 1026.6
20260831222414 61 0 0.0 4.0 0.00 0.00 0.00 7 1026.8
20260831221414 60 0 0.0 4.0 0.00 0.00 0.00 7 1027.0
20260831220414 59 0 0.0 3.0 0.00 0.00 0.00 7 1026.9
20260831215414 59 335 2.0 2.0 0.00 0.00 0.00 7 1027.0
20260831214414 58 0 0.0 3.0 0.00 0.00 0.00 7 1026.9
20260831213414 58 335 2.0 3.0 0.00 0.00 0.00 7 1027.0
20260831212414 58 334 3.0 3.0 0.00 0.00 0.00 7 1026.9
20260831211414 57 333 2.0 4.0 0.00 0.00 0.00 7 1026.9
20260831210414 57 337 2.0 5.0 0.00 0.00 0.00 7 1026.8
20260831205414 56 338 3.0 5.0 0.00 0.00 0.00 7 1026.8
20260831204414 55 0 0.0 0.0 0.00 0.00 0.00 7 1026.7
20260831203414 54 0 0.0 0.0 0.00 0.00 0.00 7 1026.7
20260831202414 53 0 0.0 0.0 0.00 0.00 0.00 7 1026.6
20260831201414 53 0 0.0 0.0 0.00 0.00 0.00 7 1026.6
20260831200414 54 0 0.0 0.0 0.00 0.00 0.00 7 1026.6
20260831195414 53 0 0.0 0.0 0.00 0.00 0.00 7 1026.6
20260831194414 54 0 0.0 0.0 0.00 0.00 0.00 7 1026.6
20260831193414 55 0 0.0 0.0 0.00 0.00 0.00 7 1026.6
20260831192414 54 0 0.0 0.0 0.00 0.00 0.00 7 1026.6
20260831191414 54 0 0.0 0.0 0.00 0.00 0.00 7 1026.5
20260831190414 55 0 0.0 0.0 0.00 0.00 0.00 7 1026.5
20260831185414 55 0 0.0 0.0 0.00 0.00 0.00 7 1026.6
20260831184412 55 0 0.0 0.0 0.00 0.00 0.00 7 1026.5
20260831183412 55 0 0.0 0.0 0.00 0.00 0.00 7 1026.6
20260831182412 54 0 0.0 0.0 0.00 0.00 0.00 7 1026.5
20260831181412 54 0 0.0 0.0 0.00 0.00 0.00 7 1026.4
20260831180412 55 0 0.0 0.0 0.00 0.00 0.00 7 1026.4
20260831175412 56 0 0.0 0.0 0.00 0.00 0.00 7 1026.4
20260831174412 56 0 0.0 0.0 0.00 0.00 0.00 7 1026.5
20260831173412 55 0 0.0 0.0 0.00 0.00 0.00 7 1026.5
20260831172412 56 0 0.0 0.0 0.00 0.00 0.00 7 1026.5
20260831171412 57 0 0.0 0.0 0.00 0.00 0.00 7 1026.5
20260831170412 56 0 0.0 0.0 0.00 0.00 0.00 7 1026.6
20260831165412 55 0 0.0 0.0 0.00 0.00 0.00 7 1026.7
20260831164412 55 0 0.0 0.0 0.00 0.00 0.00 7 1026.7
20260831163412 55 0 0.0 0.0 0.00 0.00 0.00 7 1026.9
20260831162412 56 0 0.0 0.0 0.00 0.00 0.00 7 1027.0
20260831161412 57 0 0.0 0.0 0.00 0.00 0.00 7 1027.2
20260831160412 57 0 0.0 0.0 0.00 0.00 0.00 7 1027.3
20260831155412 57 0 0.0 0.0 0.00 0.00 0.00 7 1027.5
20260831154412 56 0 0.0 0.0 0.00 0.00 0.00 7 1027.6
20260831153412 57 0 0.0 0.0 0.00 0.00 0.00 7 1027.7
20260831152412 57 0 0.0 0.0 0.00 0.00 0.00 7 1028.0
20260831151412 57 0 0.0 0.0 0.00 0.00 0.00 7 1028.2
20260831150412 56 0 0.0 0.0 0.00 0.00 0.00 7 1028.3
20260831145412 56 0 0.0 0.0 0.00 0.00 0.00 7 1028.4
20260831144412 56 0 0.0 0.0 0.00 0.00 0.00 7 1028.4
20260831143412 56 0 0.0 0.0 0.00 0.00 0.00 7 1028.5
20260831142412 56 0 0.0 0.0 0.00 0.00 0.00 7 1028.5
20260831141412 56 0 0.0 0.0 0.00 0.00 0.00 7 1028.6
20260831140412 56 0 0.0 0.0 0.00 0.00 0.00 7 1028.7
20260831135412 56 0 0.0 0.0 0.00 0.00 0.00 7 1028.8
20260831134412 56 0 0.0 0.0 0.00 0.00 0.00 7 1028.7
20260831133412 56 0 0.0 2.0 0.00 0.00 0.00 7 1028.9
20260831132412 56 0 0.0 2.0 0.00 0.00 0.00 7 1028.9
20260831131412 56 0 0.0 0.0 0.00 0.00 0.00 7 1029.0
20260831130412 56 339 1.0 2.0 0.00 0.00 0.00 8 1029.2
20260831125412 55 339 1.0 2.0 0.00 0.00 0.00 8 1029.1
20260831124412 55 339 1.0 2.0 0.00 0.00 0.00 8 1029.2
20260831123412 55 0 0.0 4.0 0.00 0.00 0.00 8 1029.1
20260831122412 56 0 0.0 0.0 0.00 0.00 0.00 7 1029.2
20260831121412 57 0 0.0 2.0 0.00 0.00 0.00 7 1029.3
20260831120412 58 340 2.0 2.0 0.00 0.00 0.00 7 1029.3
20260831115411 58 340 2.0 4.0 0.00 0.00 0.00 7 1029.3
20260831114411 59 0 0.0 4.0 0.00 0.00 0.00 7 1029.4
20260831113411 59 341 2.0 5.0 0.00 0.00 0.00 7 1029.4
20260831112411 59 342 1.0 4.0 0.00 0.00 0.00 7 1029.6
20260831111411 59 0 0.0 4.0 0.00 0.00 0.00 7 1029.6
20260831110411 59 342 1.0 4.0 0.00 0.00 0.00 7 1029.6
20260831105411 59 343 4.0 4.0 0.00 0.00 0.00 7 1029.6
20260831104410 59 0 0.0 4.0 0.00 0.00 0.00 7 1029.7
20260831103410 59 344 2.0 6.0 0.00 0.00 0.00 7 1029.6
20260831102410 59 0 0.0 4.0 0.00 0.00 0.00 7 1029.7
20260831101410 59 343 2.0 5.0 0.00 0.00 0.00 7 1029.5
20260831100410 59 0 0.0 5.0 0.00 0.00 0.00 7 1029.6
20260831095409 59 345 1.0 4.0 0.00 0.00 0.00 7 1029.5
20260831094409 59 0 0.0 4.0 0.00 0.00 0.00 8 1029.6
20260831093409 59 345 2.0 5.0 0.00 0.00 0.00 8 1029.5
20260831092409 59 14 2.0 3.0 0.00 0.00 0.00 8 1029.6
20260831091408 59 13 2.0 3.0 0.00 0.00 0.00 8 1029.7
20260831090408 59 14 2.0 5.0 0.00 0.00 0.00 8 1029.7
20260831085408 59 0 0.0 6.0 0.00 0.00 0.00 8 1029.6
20260831084408 59 349 1.0 5.0 0.00 0.00 0.00 8 1029.5
20260831083408 60 359 2.0 3.0 0.00 0.00 0.00 8 1029.4
20260831082408 60 0 0.0 5.0 0.00 0.00 0.00 8 1029.4
20260831081408 60 0 0.0 0.0 0.00 0.00 0.00 8 1029.4
20260831080407 60 0 0.0 1.0 0.00 0.00 0.00 8 1029.3
20260831075407 60 35 2.0 4.0 0.00 0.00 0.00 8 1029.4
20260831074407 61 29 3.0 6.0 0.00 0.00 0.00 8 1029.2
20260831073407 61 22 2.0 5.0 0.00 0.00 0.00 8 1029.2
20260831072407 61 0 0.0 3.0 0.00 0.00 0.00 8 1029.1
20260831071407 62 54 3.0 7.0 0.00 0.00 0.00 7 1029.0
20260831070407 62 49 2.0 10.0 0.00 0.00 0.00 7 1028.9
20260831065407 62 54 1.0 8.0 0.00 0.00 0.00 7 1029.0
20260831064407 62 43 1.0 4.0 0.00 0.00 0.00 7 1028.9
20260831063407 63 43 3.0 5.0 0.00 0.00 0.00 7 1028.9
20260831062407 63 0 0.0 9.0 0.00 0.00 0.00 7 1028.8
20260831061407 64 52 2.0 5.0 0.00 0.00 0.00 7 1028.8
20260831060407 64 59 4.0 10.0 0.00 0.00 0.00 6 1028.8
20260831055407 64 79 3.0 9.0 0.00 0.00 0.00 6 1028.7
20260831054407 65 71 3.0 7.0 0.00 0.00 0.00 6 1028.8
20260831053407 65 29 7.0 7.0 0.00 0.00 0.00 6 1028.8
20260831052407 65 44 2.0 10.0 0.00 0.00 0.00 6 1028.9
20260831051407 65 38 1.0 10.0 0.00 0.00 0.00 6 1029.0
20260831050407 65 81 4.0 8.0 0.00 0.00 0.00 7 1029.1
20260831045407 65 83 6.0 8.0 0.00 0.00 0.00 7 1029.0
20260831044407 65 57 2.0 6.0 0.00 0.00 0.00 7 1029.0
20260831043407 65 81 3.0 14.0 0.00 0.00 0.00 7 1029.1
20260831042407 65 53 2.0 7.0 0.00 0.00 0.00 7 1029.0
20260831041407 65 82 3.0 10.0 0.00 0.00 0.00 7 1029.2
20260831040406 65 82 8.0 9.0 0.00 0.00 0.00 7 1029.2
20260831035406 65 71 5.0 8.0 0.00 0.00 0.00 7 1029.1
20260831034406 65 57 5.0 8.0 0.00 0.00 0.00 7 1029.2
20260831033406 65 80 4.0 9.0 0.00 0.00 0.00 7 1029.4
20260831032406 65 82 6.0 11.0 0.00 0.00 0.00 7 1029.5
20260831031406 65 62 6.0 9.0 0.00 0.00 0.00 7 1029.5